RH
28 21 10 6 6 6 6 7 7 7 8 8 8 8 9 10 10 10 11 12 11 11 12 12 12 12 13 14 14 14 14 13 13
34 27 22 18 15 12 10 8 9 10 10 11 12 13 14 15 16 16 16 16 16 15 14 13 13 14 13 14 14 15 15 15 15
25 31 28 24 22 21 20 20 20 21 22 22 23 24 24 24 23 22 21 21 20 20 20 20 18 16 16 15 14 14 14 15 15
16 21 24 25 26 26 25 26 28 28 28 27 27 28 27 28 29 30 29 29 29 28 25 23 22 22 20 20 20 20 20 18 17
20 22 22 22 24 24 25 25 27 27 28 28 28 29 29 29 29 30 30 30 31 32 32 33 33 32 32 30 27 24 24 24 21
25 26 26 29 29 28 29 29 29 29 30 30 30 30 30 30 30 32 31 31 32 33 37 73 66 50 43 42 43 38 40 40 38
26 26 28 30 30 29 30 31 32 31 31 29 25 23 21 20 20 21 21 22 24 26 30 37 45 62 75 85 80 76 52 46 53
28 28 30 30 31 32 33 32 30 25 24 24 26 27 28 29 31 32 33 34 34 34 34 34 34 34 37 46 68 77 79 81 82
31 29 31 32 33 34 31 26 25 24 24 29 33 34 34 34 33 30 23 17 13 12 11 11 17 23 27 31 39 53 75 83 84
33 31 31 33 34 33 29 27 26 30 36 37 35 28 20 15 12 12 9 8 7 7 7 7 7 7 10 12 15 18 24 33 55
36 34 35 36 34 32 29 27 37 39 38 32 25 17 13 10 10 8 7 7 6 6 6 6 6 6 6 7 7 8 8 9 17
38 39 39 36 33 30 33 41 40 34 26 19 13 9 8 7 7 6 6 6 6 6 6 6 6 6 6 6 6 6 6 7 8
44 40 37 35 31 38 44 41 34 27 16 9 9 8 7 7 6 6 6 6 5 5 5 5 5 5 4 4 4 4 4 4 5
42 36 33 32 41 44 41 36 25 12 9 8 8 8 7 7 6 6 5 5 5 6 6 6 6 5 5 5 4 4 4 4 4
38 34 36 43 45 43 34 19 10 8 8 9 9 8 7 7 6 6 6 7 8 7 7 7 7 6 6 6 6 6 5 5 5
34 41 47 48 45 35 19 10 9 8 9 9 9 8 7 7 7 7 8 8 8 8 8 8 8 8 8 7 7 7 7 7 6
45 49 51 49 38 22 12 10 9 9 10 10 11 11 10 9 9 8 8 8 8 9 9 9 9 10 9 9 8 8 8 8 8
51 55 53 42 28 18 12 10 11 12 12 12 12 12 12 12 11 9 9 10 10 10 10 10 10 10 10 9 9 9 8 8 8
58 53 44 34 25 17 14 13 14 15 14 13 11 10 10 10 11 12 12 13 13 12 10 9 8 8 8 8 8 9 9 9 9
54 46 37 29 24 19 16 16 16 16 14 12 11 11 12 12 12 14 14 12 9 7 6 5 6 7 8 9 10 12 13 14 14
Wind_Speed
5 4 5 6 7 8 9 10 10 12 12 12 13 14 14 14 14 15 14 15 16 15 14 16 16 17 16 17 15 16 17 16 16
5 5 4 5 6 6 7 9 9 10 10 11 12 12 13 14 14 15 15 15 16 17 16 16 16 16 18 19 19 18 19 19 19
4 4 5 5 6 7 8 8 9 10 10 12 13 13 15 16 17 17 17 17 17 17 18 17 17 18 18 19 20 21 22 20 21
7 5 5 6 7 8 9 9 10 10 11 13 14 16 16 17 18 19 19 19 19 18 18 18 19 19 20 21 22 22 21 21 22
7 6 6 5 5 7 8 10 11 12 14 15 15 16 17 18 20 22 23 23 23 22 21 20 21 21 21 23 24 24 23 23 24
8 8 8 8 9 10 10 12 13 14 14 15 16 16 17 17 18 20 22 22 23 24 23 22 24 25 25 24 24 24 24 24 24
11 10 11 12 12 12 13 13 13 14 15 16 17 17 17 17 18 19 20 20 20 21 22 24 25 24 25 26 27 25 25 24 24
12 12 12 13 14 14 14 15 15 16 17 18 19 19 20 20 20 20 20 20 21 21 22 23 24 25 26 27 26 27 26 26 25
13 14 14 15 15 14 15 17 19 20 20 21 21 22 22 23 24 24 25 26 26 26 27 26 26 29 30 31 31 30 28 29 31
14 15 15 16 16 17 17 20 21 21 21 22 23 25 26 27 28 28 29 28 29 29 30 29 30 30 30 33 34 35 36 37 38
15 16 17 17 18 19 20 21 21 22 23 25 27 28 28 28 27 28 29 30 30 29 29 31 31 32 32 33 35 36 38 39 40
16 17 18 19 21 21 22 22 23 25 27 29 29 28 28 28 29 28 28 28 29 30 31 32 33 34 35 36 37 38 39 40 41
18 19 20 21 23 23 24 26 28 30 29 27 28 29 29 28 28 29 30 30 31 31 31 32 34 35 36 37 38 38 39 39 40
19 20 21 23 24 25 28 30 30 29 28 29 29 29 29 29 29 31 32 31 31 32 33 34 35 36 38 39 40 41 42 42 42
20 21 21 23 25 28 30 30 29 28 28 29 29 30 30 30 31 31 31 31 33 33 35 37 38 40 42 42 43 45 46 47 47
21 21 22 25 27 29 30 30 30 31 31 31 29 30 31 31 32 31 32 33 35 36 39 40 41 42 43 45 47 48 49 51 52
20 21 24 26 28 29 29 30 31 32 33 34 35 35 33 33 33 33 34 35 37 39 42 44 45 47 48 50 51 53 54 56 58
20 23 26 27 28 29 29 30 31 33 35 37 38 41 42 43 38 36 36 39 41 42 45 47 49 50 52 54 55 56 59 61 61
22 25 26 28 28 29 29 31 33 35 37 38 39 40 43 46 50 42 41 43 45 46 48 50 52 54 56 58 60 61 63 63 63
23 26 27 28 29 30 31 33 36 38 39 40 40 39 41 43 50 55 50 46 47 50 53 56 57 58 60 62 63 63 64 64 64
Wind_Direction
337 352 330 303 293 290 291 291 291 290 290 290 288 286 285 287 288 288 289 288 286 281 279 278 276 276 278 275 272 270 270 269 267
336 353 321 303 296 298 293 292 291 289 288 288 286 287 287 287 286 285 285 285 286 287 282 276 276 275 274 275 274 272 271 269 267
329 317 311 305 312 307 299 298 301 302 305 301 301 300 299 298 295 293 290 288 285 284 286 284 280 281 282 280 278 277 276 275 274
351 329 325 328 323 316 313 311 309 309 308 308 309 309 308 307 305 301 296 294 291 288 286 288 289 285 281 281 281 280 280 281 280
354 358 354 343 327 323 323 318 317 316 317 315 314 311 309 305 300 297 297 297 297 298 297 292 287 285 285 283 282 283 282 281 280
332 337 333 325 325 322 319 320 319 320 320 321 320 317 312 308 303 301 301 302 299 294 289 287 286 284 286 284 280 279 280 279 279
319 324 318 318 317 320 322 324 323 322 318 315 309 304 301 300 298 296 297 296 294 292 291 288 287 283 278 277 283 283 284 285 285
308 308 308 313 318 321 320 318 315 315 313 313 310 308 307 305 302 299 297 295 293 290 285 283 282 279 278 280 278 277 276 275 273
302 305 311 311 314 314 316 315 317 317 318 317 315 312 310 308 305 302 300 296 292 289 285 282 279 274 273 272 267 268 266 262 261
293 298 303 305 306 309 314 313 315 318 318 316 313 310 308 306 304 303 300 299 299 296 294 292 285 284 279 275 273 271 267 265 260
297 302 305 308 308 310 312 312 314 316 315 312 308 306 305 304 303 301 300 299 298 296 294 291 290 287 284 281 280 278 277 275 268
296 303 307 309 308 309 310 311 314 314 313 311 308 308 307 307 304 302 300 298 297 295 293 291 290 289 287 284 282 279 278 275 273
304 305 308 307 306 309 313 314 314 314 312 309 307 306 306 306 304 302 300 299 298 296 295 293 292 290 289 288 286 285 281 279 275
299 301 302 303 307 312 311 310 309 309 309 308 306 305 305 304 302 301 300 299 297 298 298 296 295 293 291 290 288 286 284 282 280
296 297 302 306 308 308 307 307 308 308 306 305 305 305 304 303 302 300 298 298 298 299 298 297 297 295 294 292 290 289 288 287 285
295 299 304 305 305 306 307 309 311 310 309 307 305 303 301 299 298 298 297 296 297 297 294 293 292 291 289 287 286 286 286 285 284
294 299 301 301 304 307 311 312 311 310 309 308 307 303 298 295 296 296 296 293 292 293 294 294 294 293 292 290 288 287 286 284 283
292 296 299 304 308 311 312 312 312 313 314 313 312 310 306 302 296 296 297 296 296 297 297 297 296 295 294 292 290 288 287 285 284
294 299 304 307 310 311 313 315 317 317 315 314 312 310 308 307 304 303 303 302 302 301 300 300 299 298 297 296 294 291 288 285 282
299 303 307 309 311 314 316 319 319 319 317 314 310 308 307 308 307 307 306 303 303 303 304 304 302 301 299 297 294 291 289 286 283